Tracking 25734 objects as of 28-May-2022
HD Live streaming from Space Station
objects crossing your sky now

ATLAS 1 CENTAUR R/B

Track ATLAS 1 CENTAUR R/B now!


NORAD ID: 20713
Int'l Code: 1990-065B
Perigee: 310.2 km
Apogee: 30,371.4 km
Inclination: 17.5 °
Period: 530.6 minutes
Semi major axis: 21711 km
RCS: 16.9997 m2 (large)
Launch date: July 25, 1990
Source: United States (US)
Launch site: AIR FORCE EASTERN TEST RANGE (AFETR)

Note: This is a ROCKET BODY
aabbcc
Your satellite tracking list
Your tracking list is empty




NASA's NSSDC Master Catalog

Two Line Element Set (TLE):
1 20713U 90065B   22147.21045932  .00003776  00000-0  22413-2 0  9992
2 20713  17.5385 148.4092 6922791 281.7377  13.6498  2.71368797302032
Source of the keplerian elements: AFSPC